TIANMU-1 13

Last updated on Sat Jun 14 2025 00:02:21 GMT+0000 (Coordinated Universal Time)

1 58647U 23205C 25164.55969137 .00007705 00000+0 33960-3 0 9997 2 58647 97.3726 187.5517 0008125 176.8874 183.2414 15.22050561 81343
UTC large
Height (km)
Speed (km/s)
/
Latitude / Longitude
Inclination (degrees)
Orbital Period (minutes)
Azimuth
Elevation
Range (km)
Doppler Factor

Next 0 passes for location: London (51.5072 / 0.1276)

Sorry there are no passes over London.